www.pogodaiklimat.ru

Погода и климат >> Архив погоды >> Эфиопия >> Бахар Дар


ПОГОДА в Бахар Дар

  • Прогноз погоды в Бахар Дар
  • Монитор погоды в Бахар Дар

АРХИВ ПОГОДЫ в Бахар Дар

Время (UTC), дата Ветер
(напр.,м/с)
 
Видим.   Явления Облачность Т
(С)
Тd
(С)
f
(%)
Тe
(С)
Тes
(С)
Комфортность P
(гПа)
Po
(гПа)
Тmin
(С)
Tmax
(С)
R
(мм)
R24
(мм)
S
(см)
15 16.09 З 2 30 км 9/8 720 м
[Cu Sc Ac trans]
+22.8 +17.0 70 +28 +28 душно 1008.8 822.4
03 17.09 Ю 1 1000 м туман на расстоянии 6/3 600 м
[Sc Ac trans]
+15.2 +14.6 96 +16 +16 1013.8 821.6
06 17.09 Ю 2 30 км 3/3 750 м
[Cu hum]
+19.0 +16.5 85 +21 +26 комфорт 1011.6 822.4 +14.6 19
09 17.09 З 2 30 км 4/4 750 м
[Cu hum]
+23.2 +17.0 68 +28 +41 душно 1009.4 822.6
12 17.09 СВ 2 20 км гроза без осадков 8/8 720 м
[Cu Sc]
+22.0 +16.8 72 +26 +29 душно 1008.9 821.3
15 17.09 ЮЗ 1 30 км 9/9 700 м
[Cu Sc]
+20.8 +16.4 76 +25 +25 комфорт 1009.6 821.5
03 18.09 Ю 1 30 км 8/3 630 м
[Sc Ac trans]
+15.0 +14.7 98 +15 +15 1014.5 822.0
06 18.09 штиль 0 30 км 6/5 700 м
[Cu Sc Ac trans]
+17.8 +16.0 89 +18 +23 1012.3 822.2 +14.8 3
09 18.09 СЗ 2 30 км 4/4 750 м
[Cu hum Ci fib]
+22.8 +16.8 69 +28 +40 душно 1008.8 822.0
12 18.09 В 2 30 км 6/6 720 м
[Cu Sc]
+22.6 +17.4 72 +27 +33 душно 1007.9 821.0
15 18.09 З 2 25 км гроза без осадков 8/8 700 м
[Cb cap]
+22.0 +17.5 76 +27 +27 душно 1008.3 821.4
03 19.09 Ю 1 1000 м туман на расстоянии 5/3 600 м
[Sc Ac trans]
+14.8 +14.5 98 +15 +15 1015.7 823.4
06 19.09 Ю 2 30 км 1/1 750 м
[Cu hum]
+17.8 +15.4 86 +18 +25 1013.5 823.0 +14.0 18
15 19.09 штиль 0 30 км 5/5 700 м
[Cu Sc]
+25.6 +17.5 61 +30 +30 душно 1006.9 821.0
12 20.09 ЮЗ 2 30 км 6/6 720 м
[Cu Sc]
+25.6 +15.5 54 +29 +34 душно 1005.9 820.8
15 20.09 З 2 30 км 8/8 720 м
[Cu Sc]
+24.4 +17.0 63 +28 +28 душно 1006.9 820.7
06 21.09 Ю 2 30 км 6/3 750 м
[Sc Ac trans]
+18.0 +16.0 88 +19 +23 1012.3 822.4 +14.5 0.1
09 21.09 ЮЗ 2 30 км 4/4 750 м
[Cu hum]
+23.8 +18.4 72 +28 +41 душно 1008.7 822.5
12 21.09 штиль 0 30 км 8/8 700 м
[Cu Sc]
+24.4 +17.4 65 +28 +32 душно 1004.3 820.2
15 21.09 ЮЗ 2 30 км 6/6 700 м
[Cu Sc]
+18.8 +14.5 76 +20 +20 1009.4 820.3
06 22.09 Ю 2 30 км 8/6 700 м
[Cu Sc Ac trans]
+18.6 +16.4 87 +20 +22 1012.6 822.6 +15.8
09 22.09 ЮВ 2 20 км слаб. дождь 10/8 700 м
[Cu Sc As op]
+17.8 +15.0 84 +18 +19 1012.9 822.6
12 22.09 З 2 30 км 4/4 750 м
[Cu med, cong]
+23.6 +15.5 60 +27 +34 жарко 1006.6 820.5
15 22.09 З 2 30 км 5/5 750 м
[Cu med, cong]
+22.6 +16.0 66 +27 +27 душно 1007.9 820.8
03 23.09 Ю 1 30 км 6/6 700 м
[Cu Sc]
+16.2 +14.5 90 +17 +17 1013.7 822.0
06 23.09 В 2 30 км 3/3 750 м
[Cu hum]
+19.0 +16.4 85 +21 +26 комфорт 1012.2 822.5 +15.8
09 23.09 З 2 30 км 4/4 750 м
[Cu hum]
+23.4 +17.4 69 +29 +41 душно 1010.0 822.8
12 23.09 СВ 2 30 км 6/5 720 м
[Cu Sc Ac trans]
+25.0 +14.4 52 +28 +33 жарко 1007.4 821.8

 

Местоположение метеостанции Бахар Дар (Эфиопия): широта 11.60 долгота 37.42 высота над уровнем моря 1770 м.

В архиве по умолчанию представлена погода в Бахар Дар за последнюю неделю. Архивные данные за месяц целиком и за предыдущие месяцы, начиная с января 2011 года, Вы можете получить, выбрав интересующий диапазон дат из раскрывающегося списка и нажав кнопку "Ввод!".


*Определитесь, кто Вы:
робот инопланетянин человек

Внимание! Время в таблицах - всемирное. Для получения местного времени необходимо прибавить поправку, которая равна 3 ч.

Смотрите также архив погоды в соседних городах и на ближайших метеорологических станциях:

Погода в Гондэре (Эфиопия) (106 км)
Погода в Дэбрэ-Маркосе (Эфиопия) (144 км)
Погода в Комбольча (Эфиопия) (257 км)
Погода в Нэкэмте (Эфиопия) (300 км)
Погода в Макале (Эфиопия) (308 км)
Погода в Аддис-Абебе (Эфиопия) (321 км)
Погода в Эд-Дамазине () (332 км)
Погода в Гедарефе (Судан) (348 км)
Погода Harar Meda аэропорту (Эфиопия) (365 км)
Погода в Абу-Наама (Судан) (379 км)

Пояснения к столбцам:

Ветер - указаны скорость ветра в м/с - средняя за 10 мин, порывы в срок и между сроками (в фигурных скобках) и направление, откуда дует ветер: С - северный, СВ - северо-восточный, В - восточный, ЮВ - юго-восточный, Ю - южный, ЮЗ - юго-западный, З - западный, СЗ - северо-западный.
Видимость - горизонтальная дальность видимости в метрах или километрах. При видимости от 1 до 10 км при отсутствии осадков обычно наблюдается дымка, при ухудшении видимости до 1 км и менее - туман. В сухую погоду видимость может ухудшаться дымом, пылью или мглою.
Явления - указаны атмосферные явления, наблюдавшиеся в срок или в последний час перед сроком; фигурными скобками обозначены явления, наблюдавшиеся между сроками (за 1-3 часа до срока); квадратными скобками обозначены град или гололедные отложения с указанием их диаметра в мм.
Облачность - указаны через наклонную черту общая и нижняя облачность в баллах и высота нижней границы облаков в метрах; квадратными скобками обозначены формы облаков: Ci - перистые, Cs - перисто-слоистые, Cc - перисто-кучевые, Ac - высококучевые, As - высокослоистые, Sc - слоисто-кучевые, Ns - слоисто-дождевые, Cu - кучевые, Cb - кучево-дождевые. Подробнее классификацию облаков см. в Атласе облаков (PDF).
T - Температура воздуха - температура, измеренная на высоте 2 м над землей.
Td - Температура точки росы - температура, при понижении до которой содержащийся в воздухе водяной пар достигнет насыщения.
f - Относительная влажность воздуха - влажноcть воздуха, измеренная на высоте 2 м над землей.
Te - Эффективная температура - температура, которую ощущает одетый по сезону человек в тени. Характеристика душности погоды. При расчете учитывается влияние влажности воздуха и скорости ветра на теплоощущения человека.
Tes - Эффективная температура на солнце - температура, которую ощущает человек, с поправкой на солнечный нагрев. Характеристика знойности погоды. Зависит от высоты солнца над горизонтом, облачности и скорости ветра. Ночью, в пасмурную погоду, а также при ветре 12 м/с и более поправка равна нулю.
P - Атмосферное давление - приведенное к уровню моря атмосферное давление.
Po - Атмосферное давление - измеренное на уровне метеостанции атмосферное давление.
Tmin - Минимальная температура - минимум температуры воздуха на высоте 2 м над землей.
Tmax - Максимальная температура - максимум температуры воздуха на высоте 2 м над землей.
R - Количество осадков - Количество выпавших осадков за период времени, мм. При наведении курсора мыши на число - период времени, за который выпало указанное количество осадков.
R24 - Количество осадков - Количество выпавших осадков за 24 часа, мм.
S - Снежный покров - Высота снежного покрова, см. При наведении курсора мыши на число - состояние снежного покрова и степень покрытия местности в баллах.